Location: Hungerford
(51.4167°N, 1.5167°W)
Time: 09:48:56
(UTC+00:00)

Cosmos 1048 Rocket - Pass Details

Date: 23 January 2021
Orbit: 743 x 791 km, 74.0° (Epoch: 07 March)

Event Time Altitude Azimuth Distance (km) Brightness Sun altitude
Rises 20:02:08 0° 334° (NNW) 3,197 7.6 -31.1°
Reaches altitude 10° 20:04:29 10° 334° (NNW) 2,270 6.8 -31.4°
Enters shadow 20:07:12 32° 331° (NNW) 1,266 5.3 -31.8°
